TimeCEST,TemperatureF,Dew PointF,Humidity,Sea Level PressureIn,VisibilityMPH,Wind Direction,Wind SpeedMPH,Gust SpeedMPH,PrecipitationIn,Events,Conditions,WindDirDegrees,DateUTC
12:00 AM,59,45,49,29.98,,North,2.3,,,,,0,2013-05-13 22:00:00
12:20 AM,53.6,46.4,77,29.98,-9999.0,Variable,1.2,-,N/A,,Clear,0,2013-05-13 22:20:00
12:50 AM,51.8,46.4,82,29.98,-9999.0,Variable,1.2,-,N/A,,Clear,0,2013-05-13 22:50:00
1:20 AM,50.0,48.2,94,29.98,-9999.0,Variable,1.2,-,N/A,,Clear,0,2013-05-13 23:20:00
2:20 AM,51.8,46.4,82,29.98,-9999.0,North,2.3,-,N/A,,Clear,10,2013-05-14 00:20:00
2:50 AM,50.0,46.4,87,29.98,-9999.0,Variable,1.2,-,N/A,,Clear,0,2013-05-14 00:50:00
3:00 AM,55,45,59,29.99,,NNW,2.3,,,,,340,2013-05-14 01:00:00
3:20 AM,50.0,46.4,87,29.98,-9999.0,Variable,1.2,-,N/A,,Clear,0,2013-05-14 01:20:00
3:50 AM,48.2,46.4,93,29.98,-9999.0,North,4.6,-,N/A,,Clear,360,2013-05-14 01:50:00
4:00 AM,54,45,62,29.99,,North,3.5,,,,,0,2013-05-14 02:00:00
4:20 AM,48.2,44.6,87,29.98,-9999.0,Variable,1.2,-,N/A,,Clear,0,2013-05-14 02:20:00
4:50 AM,48.2,46.4,93,29.98,-9999.0,SSE,2.3,-,N/A,,Clear,150,2013-05-14 02:50:00
5:20 AM,48.2,46.4,93,29.98,-9999.0,North,2.3,-,N/A,,Clear,350,2013-05-14 03:20:00
5:50 AM,46.4,44.6,93,29.98,-9999.0,North,3.5,-,N/A,,Clear,360,2013-05-14 03:50:00
6:00 AM,52,45,68,29.99,,NNW,3.5,,,,,340,2013-05-14 04:00:00
6:20 AM,48.2,46.4,93,29.98,-9999.0,NNE,2.3,-,N/A,,Clear,30,2013-05-14 04:20:00
6:50 AM,46.4,42.8,87,29.98,-9999.0,North,3.5,-,N/A,,Clear,360,2013-05-14 04:50:00
7:00 AM,53,45,65,30.01,,North,2.3,,,,,350,2013-05-14 05:00:00
7:20 AM,48.2,44.6,87,30.01,-9999.0,North,4.6,-,N/A,,Clear,350,2013-05-14 05:20:00
7:50 AM,50.0,48.2,94,30.01,-9999.0,Variable,1.2,-,N/A,,Clear,0,2013-05-14 05:50:00
8:20 AM,57.2,50.0,77,30.01,-9999.0,Variable,1.2,-,N/A,,Clear,0,2013-05-14 06:20:00
8:50 AM,59.0,48.2,67,30.01,-9999.0,Variable,1.2,-,N/A,,Clear,0,2013-05-14 06:50:00
9:00 AM,57,49,67,30.00,,SE,3.5,,,,,140,2013-05-14 07:00:00
9:20 AM,59.0,46.4,63,29.98,-9999.0,Variable,3.5,-,N/A,,Clear,0,2013-05-14 07:20:00
9:50 AM,60.8,48.2,63,29.98,-9999.0,SSW,3.5,-,N/A,,Clear,200,2013-05-14 07:50:00
10:00 AM,58,48,62,29.99,,SSW,2.3,,,,,200,2013-05-14 08:00:00
10:20 AM,64.4,48.2,56,29.98,-9999.0,Variable,3.5,-,N/A,,Clear,0,2013-05-14 08:20:00
10:50 AM,66.2,50.0,56,29.98,6.2,South,4.6,-,N/A,,Partly Cloudy,180,2013-05-14 08:50:00
11:20 AM,68.0,46.4,46,29.95,6.2,South,4.6,-,N/A,,Partly Cloudy,190,2013-05-14 09:20:00
11:50 AM,68.0,46.4,46,29.95,6.2,South,5.8,-,N/A,,Scattered Clouds,180,2013-05-14 09:50:00
12:00 PM,66,47,39,29.94,,SSE,3.5,,,,,150,2013-05-14 10:00:00
12:20 PM,68.0,46.4,46,29.95,6.2,South,6.9,-,N/A,,Scattered Clouds,180,2013-05-14 10:20:00
12:50 PM,68.0,44.6,43,29.95,6.2,South,5.8,-,N/A,,Scattered Clouds,190,2013-05-14 10:50:00
1:00 PM,66,53,54,29.92,,South,5.8,,,,,190,2013-05-14 11:00:00
1:20 PM,69.8,48.2,46,29.92,6.2,SSW,6.9,-,N/A,,Mostly Cloudy,200,2013-05-14 11:20:00
1:50 PM,69.8,46.4,43,29.92,6.2,South,8.1,-,N/A,,Mostly Cloudy,190,2013-05-14 11:50:00
2:20 PM,69.8,48.2,46,29.92,6.2,South,8.1,-,N/A,,Mostly Cloudy,190,2013-05-14 12:20:00
2:50 PM,71.6,48.2,43,29.89,6.2,South,10.4,-,N/A,,Mostly Cloudy,190,2013-05-14 12:50:00
3:00 PM,68,47,37,29.88,,South,5.8,,,,,190,2013-05-14 13:00:00
3:20 PM,71.6,48.2,43,29.89,6.2,South,8.1,-,N/A,,Mostly Cloudy,190,2013-05-14 13:20:00
3:50 PM,71.6,50.0,46,29.89,6.2,South,8.1,-,N/A,,Mostly Cloudy,180,2013-05-14 13:50:00
4:00 PM,68,48,37,29.86,,South,5.8,,,,,180,2013-05-14 14:00:00
4:20 PM,69.8,48.2,46,29.86,6.2,South,8.1,-,N/A,,Mostly Cloudy,190,2013-05-14 14:20:00
4:50 PM,69.8,48.2,46,29.86,6.2,South,5.8,-,N/A,,Mostly Cloudy,180,2013-05-14 14:50:00
5:20 PM,69.8,50.0,49,29.86,6.2,South,8.1,-,N/A,,Mostly Cloudy,190,2013-05-14 15:20:00
5:50 PM,69.8,48.2,46,29.86,6.2,South,6.9,-,N/A,,Mostly Cloudy,190,2013-05-14 15:50:00
6:00 PM,69,46,32,29.84,,SSW,5.8,,,,,200,2013-05-14 16:00:00
6:20 PM,68.0,48.2,49,29.86,6.2,South,8.1,-,N/A,,Mostly Cloudy,190,2013-05-14 16:20:00
6:50 PM,68.0,50.0,52,29.86,6.2,South,5.8,-,N/A,,Mostly Cloudy,190,2013-05-14 16:50:00
7:00 PM,66,51,48,29.83,,ESE,3.5,,,,,120,2013-05-14 17:00:00
7:20 PM,68.0,50.0,52,29.83,6.2,Variable,2.3,-,N/A,,Mostly Cloudy,0,2013-05-14 17:20:00
7:50 PM,66.2,48.2,52,29.83,6.2,Variable,2.3,-,N/A,,Mostly Cloudy,0,2013-05-14 17:50:00
8:20 PM,66.2,50.0,56,29.83,6.2,Variable,2.3,-,N/A,,Mostly Cloudy,0,2013-05-14 18:20:00
8:50 PM,64.4,51.8,64,29.83,6.2,Variable,1.2,-,N/A,,Mostly Cloudy,0,2013-05-14 18:50:00
9:00 PM,64,51,53,29.82,,ESE,4.6,,,,,110,2013-05-14 19:00:00
9:20 PM,62.6,50.0,63,29.83,6.2,Variable,2.3,-,N/A,Thunderstorm,Mostly Cloudy,0,2013-05-14 19:20:00
9:50 PM,62.6,53.6,72,29.83,6.2,SSE,3.5,-,N/A,Rain-Thunderstorm,Thunderstorms and Rain,160,2013-05-14 19:50:00
10:00 PM,61,53,67,29.85,,SW,8.1,,,,,230,2013-05-14 20:00:00
10:20 PM,55.4,53.6,94,29.86,4.3,Variable,3.5,-,N/A,Rain,Rain,0,2013-05-14 20:20:00
10:50 PM,55.4,53.6,94,29.89,3.7,Variable,2.3,-,N/A,Rain,Rain,0,2013-05-14 20:50:00
11:20 PM,55.4,53.6,94,29.89,6.2,NE,5.8,-,N/A,Rain,Light Rain,40,2013-05-14 21:20:00
11:50 PM,55.4,53.6,94,29.86,6.2,NNE,8.1,-,N/A,Rain,Light Rain,20,2013-05-14 21:50:00